Find Palapa A2

NORAD ID: 9862 Int'l Des: 1977-018 Owner: PER Country: ID operational
HEOCIRCULAR

Live Position

Loading 3D Globe...

About Palapa A2

Description loading...

Upcoming Passes

Passes for default location (London). Set your location on the main map for personalized predictions.

Altitude History

Loading altitude history...

Two-Line Element Set

1 9862U 77018A 26104.17074264 .00000063 00000-0 00000+0 0 9990
2 9862 8.7883 310.7262 0003938 101.8249 271.4662 1.00026865142474
Epoch: Apr 14, 2026 • Age: 18 hours

Current Status

Altitude 35872.9 km
Velocity 3.07 km/s
Sub-Earth Point -8.36°S, 59.73°E
Type other

Most Searched